Voltar ao catálogo

SL-8 R/B

AtivoLEO
NORAD 12983·ROCKET BODY·🇷🇺 Russia

Lançado Nov 28, 1981 de Plesetsk Cosmodrome

Loading…

Próximas Passagens (próximas 24 horas)

TLE

AtualizadoSource: Space-Track

Época: Sep 14, 2026, 10:04 UTC

1 12983U 81116J   26257.41967049  .00000073  00000-0  79018-3 0  9990
2 12983  73.9818  75.3399 0114965 283.3568  92.9659 12.24801533737363

Acompanhe SL-8 R/B em tempo real com AllMySat

Download on the App Store